NKS390A KRDU-KFLL

Flight info

Callsign NKS390A
Flight time 1h 49m
Altitude 38000
Route ROZBO5 ROZBO GARIC JRDAN Y291 MAJIK CUUDA3
Aircraft A321/M-SDE3FGHIRWY/LB1

Departure

Time 2026-05-04 00:36
Airport Raleigh-Durham International Airport (KRDU)

Arrival

Time 2026-05-04 02:26
Airport Fort Lauderdale Hollywood International Airport (KFLL)
Time Latitude Longitude Altitude Speed Heading
2026-05-04 00:08 35.87334 -78.79011 435 ft 0 kts 315°
2026-05-04 00:25 35.87327 -78.79002 435 ft 4 kts 314°
2026-05-04 00:26 35.87312 -78.78983 415 ft 4 kts 316°
2026-05-04 00:26 35.87291 -78.78963 425 ft 4 kts 339°
2026-05-04 00:26 35.87267 -78.78955 421 ft 4 kts
2026-05-04 00:26 35.87243 -78.78966 431 ft 4 kts 39°
2026-05-04 00:27 35.87235 -78.78975 424 ft 0 kts 45°
2026-05-04 00:30 35.87239 -78.78970 427 ft 3 kts 45°
2026-05-04 00:30 35.87265 -78.78938 427 ft 9 kts 45°
2026-05-04 00:30 35.87319 -78.78871 423 ft 12 kts 45°
2026-05-04 00:31 35.87378 -78.78798 426 ft 12 kts 45°
2026-05-04 00:31 35.87438 -78.78723 421 ft 13 kts 46°
2026-05-04 00:31 35.87502 -78.78643 427 ft 13 kts 45°
2026-05-04 00:31 35.87568 -78.78562 432 ft 14 kts 45°
2026-05-04 00:32 35.87634 -78.78482 428 ft 12 kts 45°
2026-05-04 00:32 35.87696 -78.78405 426 ft 13 kts 45°
2026-05-04 00:32 35.87762 -78.78324 435 ft 13 kts 45°
2026-05-04 00:32 35.87810 -78.78263 425 ft 10 kts 45°
2026-05-04 00:33 35.87861 -78.78201 427 ft 10 kts 45°
2026-05-04 00:33 35.87962 -78.78075 429 ft 5 kts 46°
2026-05-04 00:33 35.87967 -78.78065 421 ft 0 kts 55°
2026-05-04 00:34 35.87969 -78.78063 421 ft 0 kts 55°
2026-05-04 00:34 35.87974 -78.78043 421 ft 4 kts 85°
2026-05-04 00:34 35.87963 -78.78016 433 ft 3 kts 123°
2026-05-04 00:34 35.87949 -78.77995 427 ft 9 kts 131°
2026-05-04 00:35 35.87880 -78.77987 430 ft 11 kts 213°
2026-05-04 00:35 35.87860 -78.78011 428 ft 3 kts 224°
2026-05-04 00:35 35.87671 -78.78243 426 ft 79 kts 225°
2026-05-04 00:35 35.87109 -78.78941 431 ft 147 kts 225°
2026-05-04 00:36 35.86272 -78.79964 698 ft 181 kts 225°
2026-05-04 00:36 35.85460 -78.81077 1766 ft 167 kts 232°
2026-05-04 00:36 35.84758 -78.82156 2802 ft 158 kts 228°
2026-05-04 00:36 35.83899 -78.83094 3419 ft 177 kts 214°
2026-05-04 00:37 35.82722 -78.83793 3858 ft 200 kts 201°
2026-05-04 00:37 35.81323 -78.84147 4025 ft 219 kts 186°
2026-05-04 00:37 35.79702 -78.83989 4140 ft 245 kts 168°
2026-05-04 00:37 35.78085 -78.83137 4389 ft 267 kts 147°
2026-05-04 00:38 35.76719 -78.81550 4978 ft 275 kts 130°
2026-05-04 00:38 35.75405 -78.79807 5562 ft 280 kts 143°
2026-05-04 00:38 35.73732 -78.78571 6131 ft 283 kts 162°
2026-05-04 00:38 35.71839 -78.77838 6692 ft 288 kts 166°
2026-05-04 00:39 35.69900 -78.77144 7294 ft 292 kts 167°
2026-05-04 00:39 35.67935 -78.76452 7915 ft 295 kts 167°
2026-05-04 00:39 35.65946 -78.75754 8549 ft 299 kts 167°
2026-05-04 00:39 35.64619 -78.75289 8953 ft 301 kts 167°
2026-05-04 00:40 35.62591 -78.74578 9595 ft 305 kts 167°
2026-05-04 00:40 35.60539 -78.73858 10188 ft 309 kts 168°
2026-05-04 00:40 35.58420 -78.73118 10403 ft 327 kts 168°
2026-05-04 00:40 35.56166 -78.72332 10547 ft 347 kts 167°
2026-05-04 00:41 35.53787 -78.71500 10735 ft 363 kts 167°
2026-05-04 00:41 35.51325 -78.70700 11211 ft 367 kts 173°
2026-05-04 00:41 35.48794 -78.70278 11760 ft 368 kts 177°
2026-05-04 00:41 35.46243 -78.69910 12340 ft 370 kts 177°
2026-05-04 00:42 35.43671 -78.69542 12925 ft 373 kts 178°
2026-05-04 00:42 35.41086 -78.69173 13518 ft 375 kts 178°
2026-05-04 00:42 35.38484 -78.68803 14085 ft 378 kts 178°
2026-05-04 00:42 35.35866 -78.68429 14602 ft 380 kts 178°
2026-05-04 00:43 35.33230 -78.68054 15120 ft 383 kts 178°
2026-05-04 00:43 35.30574 -78.67673 15639 ft 385 kts 178°
2026-05-04 00:43 35.27900 -78.67289 16163 ft 388 kts 178°
2026-05-04 00:43 35.25207 -78.66903 16680 ft 390 kts 179°
2026-05-04 00:44 35.22497 -78.66519 17204 ft 393 kts 179°
2026-05-04 00:44 35.19774 -78.66132 17710 ft 395 kts 179°
2026-05-04 00:44 35.17039 -78.65744 18224 ft 397 kts 179°
2026-05-04 00:44 35.14285 -78.65355 18673 ft 400 kts 179°
2026-05-04 00:45 35.11514 -78.64961 19121 ft 402 kts 179°
2026-05-04 00:45 35.08724 -78.64563 19585 ft 404 kts 179°
2026-05-04 00:45 35.05960 -78.64167 20038 ft 406 kts 179°
2026-05-04 00:45 35.03150 -78.63762 20494 ft 408 kts 180°
2026-05-04 00:46 35.00322 -78.63358 20952 ft 410 kts 180°
2026-05-04 00:46 34.97482 -78.62905 21401 ft 415 kts 175°
2026-05-04 00:46 34.94660 -78.61973 21798 ft 424 kts 166°
2026-05-04 00:46 34.91947 -78.60475 22220 ft 431 kts 159°
2026-05-04 00:47 34.89260 -78.58835 22625 ft 433 kts 159°
2026-05-04 00:47 34.86555 -78.57189 23022 ft 435 kts 160°
2026-05-04 00:47 34.83840 -78.55545 23401 ft 437 kts 160°
2026-05-04 00:47 34.81108 -78.53899 23764 ft 439 kts 160°
2026-05-04 00:48 34.78365 -78.52246 24090 ft 441 kts 160°
2026-05-04 00:48 34.75611 -78.50586 24399 ft 443 kts 160°
2026-05-04 00:48 34.72841 -78.48916 24735 ft 444 kts 160°
2026-05-04 00:48 34.70068 -78.47244 25044 ft 446 kts 160°
2026-05-04 00:49 34.67287 -78.45568 25367 ft 446 kts 160°
2026-05-04 00:49 34.64502 -78.43891 25711 ft 448 kts 160°
2026-05-04 00:49 34.61706 -78.42211 26020 ft 449 kts 160°
2026-05-04 00:49 34.58938 -78.40553 26327 ft 450 kts 161°
2026-05-04 00:50 34.56084 -78.38847 26630 ft 452 kts 161°
2026-05-04 00:50 34.53293 -78.37176 26917 ft 454 kts 161°
2026-05-04 00:50 34.50458 -78.35477 27220 ft 455 kts 161°
2026-05-04 00:50 34.47610 -78.33770 27497 ft 457 kts 161°
2026-05-04 00:51 34.44757 -78.32059 27769 ft 459 kts 161°
2026-05-04 00:51 34.41893 -78.30344 28026 ft 460 kts 161°
2026-05-04 00:51 34.39025 -78.28630 28326 ft 461 kts 161°
2026-05-04 00:51 34.36142 -78.26910 28607 ft 462 kts 162°
2026-05-04 00:52 34.33258 -78.25193 28877 ft 463 kts 162°
2026-05-04 00:52 34.30356 -78.23468 29142 ft 465 kts 162°
2026-05-04 00:52 34.27452 -78.21734 29402 ft 467 kts 162°
2026-05-04 00:52 34.24531 -78.19990 29673 ft 468 kts 162°
2026-05-04 00:53 34.21597 -78.18244 29939 ft 470 kts 162°
2026-05-04 00:53 34.18666 -78.16503 30295 ft 468 kts 162°
2026-05-04 00:53 34.15784 -78.14791 30576 ft 467 kts 163°
2026-05-04 00:53 34.12875 -78.13060 30934 ft 465 kts 163°
2026-05-04 00:54 34.09978 -78.11332 31255 ft 464 kts 163°
2026-05-04 00:54 34.07090 -78.09619 31579 ft 462 kts 163°
2026-05-04 00:54 34.04207 -78.07919 31891 ft 461 kts 164°
2026-05-04 00:54 34.01333 -78.06233 32199 ft 459 kts 164°
2026-05-04 00:55 33.98461 -78.04545 32493 ft 458 kts 164°
2026-05-04 00:55 33.95599 -78.02860 32804 ft 457 kts 164°
2026-05-04 00:55 33.92742 -78.01172 33099 ft 456 kts 165°
2026-05-04 00:55 33.89882 -77.99592 33381 ft 447 kts 170°
2026-05-04 00:56 33.86957 -77.98504 33644 ft 433 kts 178°
2026-05-04 00:56 33.84030 -77.97946 33995 ft 419 kts 186°
2026-05-04 00:56 33.81149 -77.97768 34281 ft 413 kts 188°
2026-05-04 00:56 33.78276 -77.97605 34518 ft 413 kts 187°
2026-05-04 00:57 33.75406 -77.97428 34741 ft 412 kts 187°
2026-05-04 00:57 33.72586 -77.97247 34944 ft 411 kts 187°
2026-05-04 00:57 33.69726 -77.97071 35154 ft 411 kts 188°
2026-05-04 00:57 33.66875 -77.96898 35360 ft 410 kts 188°
2026-05-04 00:58 33.64025 -77.96726 35566 ft 410 kts 188°
2026-05-04 00:58 33.61181 -77.96551 35736 ft 409 kts 188°
2026-05-04 00:58 33.58342 -77.96380 35971 ft 407 kts 188°
2026-05-04 00:58 33.55512 -77.96208 36182 ft 407 kts 188°
2026-05-04 00:59 33.52690 -77.96037 36376 ft 406 kts 188°
2026-05-04 00:59 33.49865 -77.95865 36562 ft 405 kts 188°
2026-05-04 00:59 33.47055 -77.95696 36752 ft 403 kts 189°
2026-05-04 00:59 33.44269 -77.95532 37025 ft 400 kts 189°
2026-05-04 01:00 33.41484 -77.95370 37195 ft 401 kts 188°
2026-05-04 01:00 33.38702 -77.95209 37296 ft 400 kts 189°
2026-05-04 01:00 33.35917 -77.95044 37389 ft 400 kts 189°
2026-05-04 01:00 33.33143 -77.94877 37592 ft 398 kts 189°
2026-05-04 01:01 33.30383 -77.94713 37766 ft 397 kts 190°
2026-05-04 01:01 33.27626 -77.94547 37903 ft 396 kts 189°
2026-05-04 01:01 33.24914 -77.94377 38065 ft 395 kts 190°
2026-05-04 01:02 33.19429 -77.94045 38154 ft 395 kts 190°
2026-05-04 01:02 33.13943 -77.93715 38155 ft 395 kts 190°
2026-05-04 01:03 33.08452 -77.93394 38125 ft 394 kts 190°
2026-05-04 01:03 33.03134 -77.93655 38161 ft 370 kts 204°
2026-05-04 01:04 32.98249 -77.95289 38160 ft 364 kts 206°
2026-05-04 01:04 32.93365 -77.96960 38167 ft 366 kts 206°
2026-05-04 01:05 32.88463 -77.98636 38153 ft 367 kts 206°
2026-05-04 01:05 32.83564 -78.00298 38152 ft 369 kts 206°
2026-05-04 01:06 32.78627 -78.01981 38161 ft 370 kts 206°
2026-05-04 01:06 32.73678 -78.03668 38166 ft 370 kts 206°
2026-05-04 01:07 32.68723 -78.05351 38175 ft 370 kts 206°
2026-05-04 01:07 32.63767 -78.07045 38178 ft 371 kts 206°
2026-05-04 01:08 32.58806 -78.08734 38134 ft 371 kts 206°
2026-05-04 01:08 32.53843 -78.10407 38166 ft 370 kts 206°
2026-05-04 01:09 32.48895 -78.12074 38180 ft 369 kts 206°
2026-05-04 01:09 32.43957 -78.13745 38188 ft 369 kts 206°
2026-05-04 01:10 32.39022 -78.15421 38190 ft 369 kts 206°
2026-05-04 01:10 32.34118 -78.17077 38190 ft 369 kts 206°
2026-05-04 01:11 32.29183 -78.18741 38173 ft 368 kts 206°
2026-05-04 01:11 32.24263 -78.20398 38184 ft 367 kts 206°
2026-05-04 01:12 32.19346 -78.22050 38190 ft 367 kts 206°
2026-05-04 01:12 32.14441 -78.23695 38193 ft 366 kts 206°
2026-05-04 01:13 32.09536 -78.25343 38190 ft 366 kts 206°
2026-05-04 01:13 32.04641 -78.26987 38150 ft 365 kts 206°
2026-05-04 01:14 31.99750 -78.28619 38178 ft 365 kts 206°
2026-05-04 01:14 31.94904 -78.30235 38191 ft 364 kts 206°
2026-05-04 01:15 31.90043 -78.31870 38199 ft 363 kts 206°
2026-05-04 01:15 31.85182 -78.33494 38200 ft 363 kts 206°
2026-05-04 01:16 31.80323 -78.35105 38147 ft 363 kts 206°
2026-05-04 01:16 31.75472 -78.36723 38179 ft 362 kts 206°
2026-05-04 01:17 31.70627 -78.38340 38189 ft 361 kts 206°
2026-05-04 01:17 31.65786 -78.39940 38190 ft 361 kts 206°
2026-05-04 01:18 31.60955 -78.41541 38190 ft 361 kts 206°
2026-05-04 01:18 31.56121 -78.43149 38190 ft 361 kts 206°
2026-05-04 01:19 31.51285 -78.44742 38150 ft 360 kts 206°
2026-05-04 01:19 31.46455 -78.46322 38179 ft 360 kts 206°
2026-05-04 01:20 31.41658 -78.47884 38185 ft 360 kts 206°
2026-05-04 01:20 31.36834 -78.49447 38190 ft 360 kts 206°
2026-05-04 01:21 31.32013 -78.51004 38194 ft 359 kts 206°
2026-05-04 01:21 31.27198 -78.52561 38150 ft 359 kts 206°
2026-05-04 01:22 31.22389 -78.54113 38175 ft 358 kts 206°
2026-05-04 01:22 31.17591 -78.55662 38184 ft 358 kts 206°
2026-05-04 01:23 31.12796 -78.57205 38185 ft 357 kts 206°
2026-05-04 01:23 31.07999 -78.58755 38188 ft 357 kts 206°
2026-05-04 01:24 31.03207 -78.60297 38189 ft 357 kts 206°
2026-05-04 01:24 30.98451 -78.61822 38161 ft 357 kts 206°
2026-05-04 01:25 30.93661 -78.63363 38175 ft 357 kts 206°
2026-05-04 01:25 30.88877 -78.64897 38178 ft 356 kts 206°
2026-05-04 01:26 30.84088 -78.66435 38185 ft 356 kts 206°
2026-05-04 01:26 30.79313 -78.67968 38196 ft 356 kts 206°
2026-05-04 01:27 30.74524 -78.69491 38117 ft 357 kts 206°
2026-05-04 01:27 30.69729 -78.71019 38145 ft 357 kts 206°
2026-05-04 01:28 30.64933 -78.72551 38153 ft 358 kts 206°
2026-05-04 01:28 30.60134 -78.74088 38166 ft 357 kts 206°
2026-05-04 01:29 30.55369 -78.75611 38172 ft 357 kts 206°
2026-05-04 01:29 30.50570 -78.77138 38175 ft 357 kts 206°
2026-05-04 01:30 30.45773 -78.78659 38131 ft 357 kts 206°
2026-05-04 01:30 30.40981 -78.80179 38147 ft 357 kts 206°
2026-05-04 01:31 30.36962 -78.81457 38159 ft 357 kts 206°
2026-05-04 01:31 30.32159 -78.82979 38163 ft 358 kts 206°
2026-05-04 01:32 30.27392 -78.84493 38168 ft 358 kts 206°
2026-05-04 01:32 30.22589 -78.86013 38169 ft 358 kts 206°
2026-05-04 01:33 30.17790 -78.87532 38170 ft 358 kts 206°
2026-05-04 01:33 30.12875 -78.88747 38161 ft 366 kts 201°
2026-05-04 01:34 30.08042 -78.90152 38162 ft 354 kts 208°
2026-05-04 01:34 30.03368 -78.91939 38163 ft 354 kts 208°
2026-05-04 01:35 29.98637 -78.93593 38166 ft 357 kts 207°
2026-05-04 01:35 29.93839 -78.95114 38163 ft 358 kts 206°
2026-05-04 01:36 29.89033 -78.96602 38108 ft 358 kts 207°
2026-05-04 01:36 29.84211 -78.98098 38121 ft 359 kts 207°
2026-05-04 01:37 29.79331 -78.99453 38133 ft 367 kts 202°
2026-05-04 01:37 29.74281 -79.00395 38142 ft 368 kts 202°
2026-05-04 01:38 29.69261 -79.01319 38143 ft 368 kts 202°
2026-05-04 01:38 29.64205 -79.02250 38091 ft 368 kts 202°
2026-05-04 01:39 29.59136 -79.03182 38103 ft 369 kts 202°
2026-05-04 01:39 29.54063 -79.04119 38119 ft 370 kts 202°
2026-05-04 01:40 29.48981 -79.05055 37871 ft 370 kts 202°
2026-05-04 01:40 29.46443 -79.05519 37363 ft 368 kts 201°
2026-05-04 01:40 29.43922 -79.05979 36918 ft 365 kts 201°
2026-05-04 01:40 29.41421 -79.06432 36474 ft 362 kts 201°
2026-05-04 01:41 29.38975 -79.06877 36037 ft 359 kts 201°
2026-05-04 01:41 29.36486 -79.07333 35541 ft 356 kts 201°
2026-05-04 01:41 29.34047 -79.07784 35102 ft 354 kts 201°
2026-05-04 01:41 29.31654 -79.08224 34678 ft 351 kts 201°
2026-05-04 01:42 29.29250 -79.08663 34256 ft 349 kts 201°
2026-05-04 01:42 29.26864 -79.09099 33778 ft 346 kts 200°
2026-05-04 01:42 29.24489 -79.09535 33249 ft 345 kts 200°
2026-05-04 01:42 29.22125 -79.09971 32726 ft 344 kts 200°
2026-05-04 01:43 29.19766 -79.10407 32191 ft 343 kts 199°
2026-05-04 01:43 29.17410 -79.10839 31680 ft 343 kts 199°
2026-05-04 01:43 29.15056 -79.11272 31168 ft 343 kts 199°
2026-05-04 01:43 29.12702 -79.11707 30688 ft 343 kts 198°
2026-05-04 01:44 29.10346 -79.12143 30211 ft 343 kts 198°
2026-05-04 01:44 29.07992 -79.12574 29654 ft 342 kts 198°
2026-05-04 01:44 29.05648 -79.13000 29201 ft 340 kts 198°
2026-05-04 01:44 29.03313 -79.13424 28758 ft 339 kts 198°
2026-05-04 01:45 29.00994 -79.13847 28325 ft 337 kts 198°
2026-05-04 01:45 28.98683 -79.14269 27894 ft 335 kts 198°
2026-05-04 01:45 28.94126 -79.15098 27040 ft 332 kts 198°
2026-05-04 01:46 28.91846 -79.15514 26612 ft 331 kts 198°
2026-05-04 01:46 28.89577 -79.15928 26186 ft 329 kts 198°
2026-05-04 01:46 28.87318 -79.16336 25764 ft 328 kts 198°
2026-05-04 01:46 28.85069 -79.16742 25346 ft 326 kts 198°
2026-05-04 01:47 28.82829 -79.17147 24929 ft 325 kts 198°
2026-05-04 01:47 28.80601 -79.17555 24481 ft 324 kts 198°
2026-05-04 01:47 28.78380 -79.17961 24082 ft 322 kts 198°
2026-05-04 01:47 28.76195 -79.18357 23678 ft 321 kts 198°
2026-05-04 01:48 28.73988 -79.18755 23209 ft 320 kts 198°
2026-05-04 01:48 28.71795 -79.19152 22760 ft 319 kts 198°
2026-05-04 01:48 28.69609 -79.19547 22305 ft 317 kts 198°
2026-05-04 01:48 28.67439 -79.19938 21874 ft 315 kts 198°
2026-05-04 01:49 28.65275 -79.20324 21440 ft 314 kts 198°
2026-05-04 01:49 28.63125 -79.20712 21011 ft 312 kts 198°
2026-05-04 01:49 28.60987 -79.21099 20594 ft 311 kts 198°
2026-05-04 01:49 28.58857 -79.21485 20182 ft 309 kts 197°
2026-05-04 01:50 28.56733 -79.21867 19772 ft 308 kts 197°
2026-05-04 01:50 28.54621 -79.22246 19375 ft 307 kts 197°
2026-05-04 01:50 28.52516 -79.22627 18959 ft 305 kts 197°
2026-05-04 01:50 28.50440 -79.23002 18605 ft 303 kts 197°
2026-05-04 01:51 28.48347 -79.23381 18216 ft 301 kts 197°
2026-05-04 01:51 28.46282 -79.23756 17780 ft 300 kts 197°
2026-05-04 01:51 28.44224 -79.24130 17347 ft 299 kts 197°
2026-05-04 01:51 28.42168 -79.24503 16919 ft 298 kts 196°
2026-05-04 01:52 28.40122 -79.24874 16496 ft 298 kts 196°
2026-05-04 01:52 28.38080 -79.25245 16081 ft 297 kts 196°
2026-05-04 01:52 28.36039 -79.25615 15673 ft 296 kts 195°
2026-05-04 01:52 28.34002 -79.25982 15273 ft 296 kts 195°
2026-05-04 01:53 28.31997 -79.26410 15079 ft 291 kts 202°
2026-05-04 01:53 28.30046 -79.27053 15082 ft 293 kts 202°
2026-05-04 01:53 28.28084 -79.27692 15084 ft 294 kts 202°
2026-05-04 01:53 28.26114 -79.28328 15084 ft 294 kts 202°
2026-05-04 01:54 28.24172 -79.28955 15059 ft 294 kts 202°
2026-05-04 01:54 28.22200 -79.29592 15075 ft 295 kts 202°
2026-05-04 01:54 28.20199 -79.30243 15077 ft 296 kts 202°
2026-05-04 01:54 28.18242 -79.30881 15079 ft 296 kts 202°
2026-05-04 01:55 28.16217 -79.31540 15092 ft 313 kts 201°
2026-05-04 01:55 28.14053 -79.32252 15088 ft 335 kts 201°
2026-05-04 01:55 28.11747 -79.33009 15082 ft 355 kts 201°
2026-05-04 01:55 28.09310 -79.33805 15074 ft 373 kts 201°
2026-05-04 01:56 28.06771 -79.34626 15074 ft 387 kts 200°
2026-05-04 01:56 28.04123 -79.35480 15080 ft 401 kts 200°
2026-05-04 01:56 28.01416 -79.36351 15069 ft 405 kts 200°
2026-05-04 01:56 27.98700 -79.37221 15065 ft 406 kts 200°
2026-05-04 01:57 27.95978 -79.38095 15073 ft 407 kts 200°
2026-05-04 01:57 27.93256 -79.38967 15075 ft 406 kts 200°
2026-05-04 01:57 27.90533 -79.39839 15118 ft 409 kts 200°
2026-05-04 01:57 27.87792 -79.40723 15611 ft 410 kts 200°
2026-05-04 01:58 27.85046 -79.41612 16091 ft 412 kts 200°
2026-05-04 01:58 27.82281 -79.42507 16560 ft 414 kts 200°
2026-05-04 01:58 27.79502 -79.43404 17047 ft 415 kts 200°
2026-05-04 01:58 27.76722 -79.44298 17535 ft 416 kts 200°
2026-05-04 01:59 27.73939 -79.45193 17994 ft 417 kts 200°
2026-05-04 01:59 27.71147 -79.46093 18414 ft 418 kts 200°
2026-05-04 01:59 27.68342 -79.46998 18765 ft 420 kts 201°
2026-05-04 01:59 27.65522 -79.47904 19084 ft 422 kts 201°
2026-05-04 02:00 27.62686 -79.48810 19382 ft 425 kts 201°
2026-05-04 02:00 27.59833 -79.49719 19732 ft 426 kts 201°
2026-05-04 02:00 27.56974 -79.50632 19992 ft 428 kts 201°
2026-05-04 02:00 27.54124 -79.51542 20058 ft 427 kts 201°
2026-05-04 02:01 27.51254 -79.52460 20064 ft 427 kts 201°
2026-05-04 02:01 27.48433 -79.53364 20062 ft 427 kts 201°
2026-05-04 02:01 27.45577 -79.54282 20062 ft 426 kts 201°
2026-05-04 02:01 27.42725 -79.55200 20057 ft 426 kts 201°
2026-05-04 02:02 27.39869 -79.56113 20057 ft 426 kts 201°
2026-05-04 02:02 27.37010 -79.57019 20057 ft 427 kts 201°
2026-05-04 02:02 27.34150 -79.57921 20050 ft 427 kts 201°
2026-05-04 02:02 27.31299 -79.58815 19720 ft 421 kts 200°
2026-05-04 02:03 27.28514 -79.59681 19488 ft 412 kts 200°
2026-05-04 02:03 27.25760 -79.60541 19252 ft 410 kts 201°
2026-05-04 02:03 27.23019 -79.61403 19028 ft 409 kts 200°
2026-05-04 02:03 27.20282 -79.62267 18796 ft 407 kts 201°
2026-05-04 02:04 27.17559 -79.63130 18575 ft 406 kts 201°
2026-05-04 02:04 27.14843 -79.63998 18346 ft 406 kts 201°
2026-05-04 02:04 27.12129 -79.64869 18092 ft 405 kts 201°
2026-05-04 02:04 27.09429 -79.65736 17830 ft 403 kts 201°
2026-05-04 02:05 27.06729 -79.66604 17542 ft 404 kts 200°
2026-05-04 02:05 27.04023 -79.67472 17292 ft 404 kts 200°
2026-05-04 02:05 27.01327 -79.68334 17035 ft 403 kts 200°
2026-05-04 02:05 26.98639 -79.69195 16784 ft 401 kts 200°
2026-05-04 02:06 26.95956 -79.70053 16516 ft 400 kts 200°
2026-05-04 02:06 26.93279 -79.70904 16290 ft 399 kts 200°
2026-05-04 02:06 26.90609 -79.71753 16047 ft 398 kts 200°
2026-05-04 02:06 26.87947 -79.72598 15806 ft 398 kts 200°
2026-05-04 02:07 26.85291 -79.73443 15565 ft 393 kts 200°
2026-05-04 02:07 26.82697 -79.74268 15325 ft 382 kts 200°
2026-05-04 02:07 26.80180 -79.75067 15088 ft 370 kts 200°
2026-05-04 02:07 26.77770 -79.75826 14842 ft 358 kts 200°
2026-05-04 02:08 26.75403 -79.76569 14610 ft 348 kts 200°
2026-05-04 02:08 26.73112 -79.77287 14377 ft 337 kts 200°
2026-05-04 02:08 26.70891 -79.77985 14249 ft 325 kts 200°
2026-05-04 02:08 26.68772 -79.78698 14135 ft 311 kts 203°
2026-05-04 02:09 26.66770 -79.79478 14020 ft 299 kts 205°
2026-05-04 02:09 26.64850 -79.80277 13790 ft 292 kts 205°
2026-05-04 02:09 26.62960 -79.81081 13430 ft 289 kts 206°
2026-05-04 02:09 26.61082 -79.81879 13046 ft 288 kts 205°
2026-05-04 02:10 26.59209 -79.82666 12664 ft 287 kts 205°
2026-05-04 02:10 26.57341 -79.83442 12285 ft 286 kts 205°
2026-05-04 02:10 26.55483 -79.84207 11919 ft 284 kts 205°
2026-05-04 02:10 26.53646 -79.85009 11555 ft 282 kts 206°
2026-05-04 02:11 26.51842 -79.85852 11190 ft 281 kts 207°
2026-05-04 02:11 26.50049 -79.86712 10817 ft 280 kts 207°
2026-05-04 02:11 26.48267 -79.87569 10466 ft 279 kts 207°
2026-05-04 02:11 26.46488 -79.88420 10112 ft 278 kts 207°
2026-05-04 02:12 26.44714 -79.89262 9748 ft 277 kts 207°
2026-05-04 02:12 26.42942 -79.90098 9368 ft 276 kts 207°
2026-05-04 02:12 26.41182 -79.90926 9084 ft 271 kts 206°
2026-05-04 02:12 26.39464 -79.91729 8865 ft 265 kts 207°
2026-05-04 02:13 26.37807 -79.92589 8553 ft 260 kts 214°
2026-05-04 02:13 26.36244 -79.93601 8206 ft 260 kts 213°
2026-05-04 02:13 26.34690 -79.94600 8008 ft 257 kts 213°
2026-05-04 02:13 26.33152 -79.95587 8018 ft 260 kts 213°
2026-05-04 02:14 26.31586 -79.96594 8016 ft 260 kts 213°
2026-05-04 02:14 26.30018 -79.97600 8016 ft 260 kts 213°
2026-05-04 02:14 26.28447 -79.98606 8018 ft 260 kts 213°
2026-05-04 02:14 26.26879 -79.99615 8019 ft 260 kts 213°
2026-05-04 02:15 26.25314 -80.00621 7985 ft 261 kts 213°
2026-05-04 02:15 26.23747 -80.01628 7726 ft 259 kts 213°
2026-05-04 02:15 26.22192 -80.02626 7394 ft 258 kts 213°
2026-05-04 02:15 26.20642 -80.03621 7072 ft 256 kts 212°
2026-05-04 02:16 26.19173 -80.04712 6776 ft 252 kts 224°
2026-05-04 02:16 26.18021 -80.06164 6467 ft 250 kts 238°
2026-05-04 02:16 26.17259 -80.07890 6108 ft 249 kts 251°
2026-05-04 02:16 26.16716 -80.09717 5737 ft 249 kts 251°
2026-05-04 02:17 26.16166 -80.11540 5389 ft 248 kts 251°
2026-05-04 02:17 26.15611 -80.13365 5056 ft 247 kts 251°
2026-05-04 02:17 26.15125 -80.15196 5003 ft 248 kts 260°
2026-05-04 02:17 26.15017 -80.17089 5011 ft 242 kts 270°
2026-05-04 02:18 26.15031 -80.18948 5009 ft 239 kts 269°
2026-05-04 02:18 26.15042 -80.20797 5009 ft 239 kts 269°
2026-05-04 02:18 26.15049 -80.22022 5009 ft 239 kts 269°
2026-05-04 02:18 26.15059 -80.23878 4780 ft 236 kts 269°
2026-05-04 02:19 26.15067 -80.25633 4581 ft 219 kts 269°
2026-05-04 02:19 26.15077 -80.27837 4116 ft 214 kts 269°
2026-05-04 02:19 26.15081 -80.29499 3975 ft 213 kts 269°
2026-05-04 02:19 26.15087 -80.31110 3828 ft 206 kts 269°
2026-05-04 02:20 26.15091 -80.32188 3756 ft 206 kts 269°
2026-05-04 02:20 26.15097 -80.33773 3626 ft 200 kts 269°
2026-05-04 02:20 26.15029 -80.35294 3520 ft 196 kts 254°
2026-05-04 02:20 26.14408 -80.36565 3473 ft 184 kts 226°
2026-05-04 02:21 26.13372 -80.37295 3395 ft 170 kts 199°
2026-05-04 02:21 26.12209 -80.37410 3339 ft 170 kts 173°
2026-05-04 02:21 26.11068 -80.36894 3306 ft 195 kts 146°
2026-05-04 02:21 26.09977 -80.35922 3222 ft 203 kts 142°
2026-05-04 02:22 26.08876 -80.34927 3134 ft 204 kts 143°
2026-05-04 02:22 26.07788 -80.33903 3029 ft 206 kts 135°
2026-05-04 02:22 26.06991 -80.32589 2846 ft 206 kts 114°
2026-05-04 02:22 26.06668 -80.31048 2623 ft 206 kts 92°
2026-05-04 02:23 26.06656 -80.29489 2377 ft 196 kts 90°
2026-05-04 02:23 26.06651 -80.27996 2122 ft 190 kts 90°
2026-05-04 02:23 26.06645 -80.26542 1891 ft 186 kts 90°
2026-05-04 02:23 26.06638 -80.25109 1638 ft 184 kts 90°
2026-05-04 02:24 26.06631 -80.23691 1395 ft 183 kts 89°
2026-05-04 02:24 26.06623 -80.22277 1153 ft 183 kts 89°
2026-05-04 02:24 26.06616 -80.20861 920 ft 182 kts 88°
2026-05-04 02:24 26.06608 -80.19460 685 ft 180 kts 88°
2026-05-04 02:25 26.06601 -80.18063 454 ft 180 kts 89°
2026-05-04 02:25 26.06593 -80.16679 219 ft 179 kts 89°
2026-05-04 02:25 26.06586 -80.15313 23 ft 165 kts 89°
2026-05-04 02:25 26.06580 -80.14341 51 ft 85 kts 91°
2026-05-04 02:26 26.06586 -80.13914 75 ft 24 kts 86°
2026-05-04 02:26 26.06598 -80.13835 75 ft 1 kts 74°
2026-05-04 02:26 26.06619 -80.13793 69 ft 11 kts 53°
2026-05-04 02:26 26.06670 -80.13733 73 ft 8 kts 45°
2026-05-04 02:27 26.06717 -80.13722 68 ft 8 kts 337°
2026-05-04 02:27 26.06743 -80.13772 68 ft 8 kts 276°
2026-05-04 02:27 26.06743 -80.13838 72 ft 9 kts 270°
2026-05-04 02:27 26.06743 -80.13911 67 ft 10 kts 270°
2026-05-04 02:28 26.06740 -80.13990 70 ft 11 kts 258°
2026-05-04 02:28 26.06704 -80.14073 70 ft 12 kts 244°
2026-05-04 02:28 26.06679 -80.14184 54 ft 19 kts 266°
2026-05-04 02:28 26.06678 -80.14308 49 ft 15 kts 270°
2026-05-04 02:29 26.06677 -80.14428 46 ft 17 kts 269°
2026-05-04 02:29 26.06676 -80.14574 41 ft 19 kts 270°
2026-05-04 02:29 26.06675 -80.14729 28 ft 18 kts 272°
2026-05-04 02:29 26.06689 -80.14874 19 ft 15 kts 287°
2026-05-04 02:30 26.06775 -80.14920 15 ft 16 kts 18°
2026-05-04 02:30 26.06853 -80.14909 15 ft 0 kts 359°
2026-05-04 02:30 26.06856 -80.14909 16 ft 0 kts 359°